Weather History for Jackson, MN

Change the Weather History Date:

Friday, January 24, 2014

  Actual Average Record
Temperature  
Mean Temperature 24 °F -  
Max Temperature 35 °F 22 °F 42 °F (2002)
Min Temperature 12 °F 7 °F -13 °F (2009)
Degree Days  
Heating Degree Days 42    
Moisture  
Dew Point 19 °F    
Average Humidity 72    
Maximum Humidity 93    
Minimum Humidity 45    
Precipitation  
Precipitation 0.00 in - - ()
Sea Level Pressure  
Sea Level Pressure 29.75 in    
Wind  
Wind Speed 21 mph (WSW)    
Max Wind Speed 30 mph    
Max Gust Speed 37 mph    
Visibility 9 miles    
Events Rain , Snow    
Averages and records for this station are not official NWS values.
T = Trace of Precipitation, MM = Missing Value Source: NWS Daily Summary

Daily Weather History Graph

Daily Weather History Graph

Search for Another Location

Airport:

Trip Planner

Search our weather history database for the weather conditions in past years. The results will help you decide how hot, cold, wet, or windy it might be!

Date:

Astronomy

Jan. 24, 2014 Rise Set
Actual Time 7:44 AM CST 5:20 PM CST
Civil Twilight 7:13 AM CST 5:51 PM CST
Nautical Twilight 6:38 AM CST 6:26 PM CST
Astronomical Twilight 6:04 AM CST 7:00 PM CST
Moon 1:09 AM CST (1/24) 11:41 AM CST (1/24)
Length of Visible Light 10h 38m
Length of Day
9h 36m
Last Quarter, 44% of the Moon is Illuminated
Jan 24
Last Quarter
Jan 30
New
Feb 6
First Quarter
Feb 14
Full
Feb 22
Last Quarter

Hourly Weather History & Observations

Time (CST) Temp. Windchill Dew Point Humidity Pressure Visibility Wind Dir Wind Speed Gust Speed Precip Events Conditions
12:13 AM 12.2 °F -7.1 °F -5.8 °F 45% 30.17 in 10.0 mi SSW 23.0 mph 28.8 mph N/A   Clear
12:33 AM 12.2 °F -6.3 °F -4.0 °F 48% 30.15 in 10.0 mi SSW 20.7 mph 28.8 mph N/A   Clear
12:53 AM 12.2 °F -6.7 °F -4.0 °F 48% 30.12 in 10.0 mi SSW 21.9 mph 28.8 mph N/A   Clear
1:13 AM 12.2 °F -7.1 °F -4.0 °F 48% 30.09 in 10.0 mi SSW 23.0 mph 31.1 mph N/A   Clear
1:32 AM 14.0 °F -5.1 °F -4.0 °F 45% 30.08 in 10.0 mi SW 24.2 mph 33.4 mph N/A   Clear
1:53 AM 14.0 °F -5.8 °F -2.2 °F 49% 30.07 in 10.0 mi SW 26.5 mph 36.8 mph N/A   Clear
2:13 AM 14.0 °F -6.8 °F -0.4 °F 53% 30.03 in 10.0 mi SSW 29.9 mph 35.7 mph N/A   Scattered Clouds
2:33 AM 14.0 °F -6.2 °F -0.4 °F 53% 30.02 in 10.0 mi SW 27.6 mph 32.2 mph N/A   Mostly Cloudy
2:53 AM 14.0 °F -5.1 °F 1.4 °F 57% 30.00 in 10.0 mi SW 24.2 mph 33.4 mph N/A   Overcast
3:13 AM 15.8 °F -3.1 °F 1.4 °F 53% 30.00 in 10.0 mi SW 25.3 mph 29.9 mph N/A   Overcast
3:33 AM 15.8 °F -1.1 °F 1.4 °F 53% 29.99 in 10.0 mi SW 19.6 mph 27.6 mph N/A   Overcast
3:53 AM 15.8 °F -1.5 °F 3.2 °F 58% 29.97 in 10.0 mi SW 20.7 mph 25.3 mph N/A   Overcast
4:13 AM 17.6 °F 0.1 °F 3.2 °F 53% 29.95 in 10.0 mi SW 23.0 mph 27.6 mph N/A   Overcast
4:33 AM 17.6 °F -0.3 °F 3.2 °F 53% 29.93 in 10.0 mi SW 24.2 mph 32.2 mph N/A   Overcast
4:53 AM 17.6 °F 0.5 °F 5.0 °F 58% 29.91 in 10.0 mi SW 21.9 mph 33.4 mph N/A   Overcast
5:13 AM 17.6 °F 0.5 °F 5.0 °F 58% 29.89 in 10.0 mi SW 21.9 mph 27.6 mph N/A   Overcast
5:33 AM 17.6 °F 1.3 °F 5.0 °F 58% 29.87 in 10.0 mi SW 19.6 mph 26.5 mph N/A   Overcast
5:53 AM 19.4 °F 4.1 °F 6.8 °F 58% 29.87 in 10.0 mi SW 18.4 mph 25.3 mph N/A   Overcast
6:13 AM 19.4 °F 5.5 °F 8.6 °F 63% 29.87 in 10.0 mi SW 15.0 mph 20.7 mph N/A   Overcast
6:33 AM 19.4 °F 6.0 °F 8.6 °F 63% 29.86 in 10.0 mi SW 13.8 mph 18.4 mph N/A   Overcast
6:53 AM 21.2 °F 6.8 °F 8.6 °F 58% 29.85 in 10.0 mi SW 17.3 mph 24.2 mph N/A   Overcast
7:13 AM 21.2 °F 7.3 °F 10.4 °F 63% 29.84 in 10.0 mi SW 16.1 mph 23.0 mph N/A   Overcast
7:32 AM 21.2 °F 6.8 °F 10.4 °F 63% 29.83 in 10.0 mi SW 17.3 mph 23.0 mph N/A   Overcast
7:53 AM 21.2 °F 8.9 °F 10.4 °F 63% 29.82 in 10.0 mi SW 12.7 mph 21.9 mph N/A   Mostly Cloudy
8:13 AM 21.2 °F 7.8 °F 10.4 °F 63% 29.81 in 10.0 mi WSW 15.0 mph 20.7 mph N/A   Scattered Clouds
8:33 AM 21.2 °F 7.8 °F 10.4 °F 63% 29.80 in 10.0 mi WSW 15.0 mph - N/A   Clear
8:53 AM 21.2 °F 7.3 °F 10.4 °F 63% 29.79 in 10.0 mi WSW 16.1 mph 23.0 mph N/A   Clear
9:12 AM 23.0 °F 9.6 °F 12.2 °F 63% 29.78 in 10.0 mi WSW 16.1 mph 21.9 mph N/A   Scattered Clouds
9:33 AM 24.8 °F 11.5 °F 14.0 °F 64% 29.77 in 10.0 mi WSW 17.3 mph 25.3 mph N/A   Clear
9:53 AM 26.6 °F 14.7 °F 14.0 °F 59% 29.77 in 10.0 mi WSW 15.0 mph - N/A   Clear
10:13 AM 28.4 °F 15.8 °F 17.6 °F 64% 29.76 in 10.0 mi WSW 18.4 mph 21.9 mph N/A   Clear
10:33 AM 30.2 °F 17.8 °F 19.4 °F 64% 29.77 in 10.0 mi West 19.6 mph - N/A   Clear
10:53 AM 30.2 °F 17.1 °F 19.4 °F 64% 29.75 in 10.0 mi West 21.9 mph 25.3 mph N/A   Clear
11:13 AM 30.2 °F 17.4 °F 21.2 °F 69% 29.74 in 10.0 mi West 20.7 mph - N/A   Clear
11:33 AM 32.0 °F 20.1 °F 21.2 °F 64% 29.74 in 10.0 mi West 19.6 mph - N/A   Clear
11:53 AM 32.0 °F 20.1 °F 23.0 °F 69% 29.73 in 10.0 mi West 19.6 mph 24.2 mph N/A   Clear
12:13 PM 32.0 °F 19.8 °F 24.8 °F 75% 29.71 in 10.0 mi West 20.7 mph 27.6 mph N/A   Clear
12:33 PM 32.0 °F 19.5 °F 26.6 °F 80% 29.70 in 10.0 mi West 21.9 mph 28.8 mph N/A   Scattered Clouds
12:53 PM 32.0 °F 20.5 °F 26.6 °F 80% 29.69 in 10.0 mi West 18.4 mph 25.3 mph N/A   Mostly Cloudy
1:13 PM 32.0 °F 21.2 °F 26.6 °F 80% 29.66 in 10.0 mi West 16.1 mph 25.3 mph N/A   Mostly Cloudy
1:33 PM 33.8 °F 21.9 °F 28.4 °F 81% 29.65 in 10.0 mi West 21.9 mph 26.5 mph N/A   Mostly Cloudy
1:53 PM 33.8 °F 22.2 °F 28.4 °F 81% 29.64 in 10.0 mi West 20.7 mph 26.5 mph N/A   Overcast
2:13 PM 33.8 °F 21.9 °F 28.4 °F 81% 29.63 in 10.0 mi West 21.9 mph 29.9 mph N/A   Mostly Cloudy
2:33 PM 33.8 °F 21.6 °F 28.4 °F 81% 29.62 in 10.0 mi West 23.0 mph 29.9 mph N/A   Mostly Cloudy
2:53 PM 33.8 °F 22.5 °F 30.2 °F 87% 29.61 in 10.0 mi West 19.6 mph 27.6 mph N/A   Overcast
3:13 PM 33.8 °F 21.6 °F 30.2 °F 87% 29.60 in 10.0 mi West 23.0 mph 28.8 mph N/A   Mostly Cloudy
3:33 PM 35.6 °F 24.2 °F 30.2 °F 81% 29.59 in 10.0 mi West 21.9 mph 27.6 mph N/A   Overcast
3:53 PM 35.6 °F 24.2 °F 30.2 °F 81% 29.57 in 10.0 mi West 21.9 mph 31.1 mph N/A   Overcast
4:13 PM 35.6 °F 24.2 °F 30.2 °F 81% 29.57 in 10.0 mi West 21.9 mph 27.6 mph N/A   Overcast
4:33 PM 35.6 °F 25.9 °F 30.2 °F 81% 29.57 in 10.0 mi West 16.1 mph 26.5 mph N/A   Overcast
4:53 PM 35.6 °F 24.8 °F 30.2 °F 81% 29.58 in 10.0 mi West 19.6 mph - N/A   Overcast
5:13 PM 33.8 °F 22.8 °F 32.0 °F 93% 29.58 in 1.5 mi West 18.4 mph 24.2 mph N/A Rain Light Rain
5:33 PM 33.8 °F 22.5 °F 32.0 °F 93% 29.57 in 2.0 mi West 19.6 mph 26.5 mph N/A   Overcast
5:53 PM 33.8 °F 22.8 °F 32.0 °F 93% 29.57 in 7.0 mi West 18.4 mph - N/A   Overcast
6:13 PM 33.8 °F 22.8 °F 32.0 °F 93% 29.56 in 4.0 mi West 18.4 mph 25.3 mph N/A   Overcast
6:33 PM 33.8 °F 22.5 °F 32.0 °F 93% 29.56 in 5.0 mi West 19.6 mph 24.2 mph N/A Rain Light Rain
6:53 PM 35.6 °F 25.2 °F 32.0 °F 87% 29.56 in 5.0 mi WNW 18.4 mph 24.2 mph N/A   Light Drizzle
7:13 PM 35.6 °F 24.5 °F 32.0 °F 87% 29.57 in 7.0 mi WNW 20.7 mph 28.8 mph N/A   Overcast
7:32 PM 35.6 °F 24.0 °F 32.0 °F 87% 29.57 in 10.0 mi WNW 23.0 mph 28.8 mph N/A   Overcast
7:53 PM 35.6 °F 24.8 °F 32.0 °F 87% 29.57 in 4.0 mi NW 19.6 mph 25.3 mph N/A   Overcast
8:13 PM 35.6 °F 24.8 °F 32.0 °F 87% 29.57 in 10.0 mi NW 19.6 mph 26.5 mph N/A   Overcast
8:32 PM 35.6 °F 24.5 °F 32.0 °F 87% 29.58 in 10.0 mi NW 20.7 mph 26.5 mph N/A   Overcast
8:53 PM 35.6 °F 23.4 °F 32.0 °F 87% 29.58 in 10.0 mi NW 25.3 mph 31.1 mph N/A   Overcast
9:13 PM 33.8 °F 21.0 °F 32.0 °F 93% 29.60 in 7.0 mi NW 25.3 mph 31.1 mph N/A   Overcast
9:33 PM 33.8 °F 22.8 °F 32.0 °F 93% 29.61 in 4.0 mi NNW 18.4 mph 26.5 mph N/A Snow Light Snow
9:53 PM 33.8 °F 22.2 °F 30.2 °F 87% 29.61 in 10.0 mi NNW 20.7 mph 29.9 mph N/A   Overcast
10:13 PM 33.8 °F 23.2 °F 30.2 °F 87% 29.62 in 10.0 mi NW 17.3 mph 24.2 mph N/A   Overcast
10:33 PM 33.8 °F 23.2 °F 30.2 °F 87% 29.62 in 10.0 mi NW 17.3 mph 24.2 mph N/A   Overcast
10:52 PM 33.8 °F 23.9 °F 30.2 °F 87% 29.63 in 10.0 mi NW 15.0 mph 19.6 mph N/A   Overcast
11:13 PM 32.0 °F 21.2 °F 30.2 °F 93% 29.63 in 10.0 mi WNW 16.1 mph 23.0 mph N/A   Overcast
11:32 PM 32.0 °F 21.2 °F 28.4 °F 87% 29.63 in 10.0 mi NW 16.1 mph 25.3 mph N/A   Scattered Clouds
11:53 PM 32.0 °F 20.5 °F 28.4 °F 87% 29.64 in 10.0 mi WNW 18.4 mph 24.2 mph N/A   Mostly Cloudy